軌道要素
The following orbital elements are taken from MPC 52164:
Epoch 2004 Mar. 16.0 TT = JDT 2453080.5
T 2004 Mar. 17.1878 TT MPC
q 6.847419 (2000.0) P Q
z -0.000227 Peri. 81.6718 +0.0421467 -0.9810778
+/-0.000001 Node 347.6439 -0.7920751 +0.0824719
e 1.001552 Incl. 117.9816 +0.6089669 +0.1751706
From 300 observations 2002 July 27-2004 June 11, mean residual 0".6.
|